Location: Unspecified
(0.0000°N, 0.0000°E)
Time: 02:26:19
(UTC+00:00)

Transit 2A - Visible Passes

Search period start: 25 May 2024 00:00
Search period end: 04 June 2024 00:00
Orbit: 594 x 958 km, 66.7° (Epoch: 24 May)

Date Brightness Start Highest point End Pass type
(mag) Time Alt. Az. Time Alt. Az. Time Alt. Az.
28 May 5.3 19:30:22 10° SSW 19:34:39 88° ESE 19:39:04 10° NNE visible
29 May 5.8 18:55:28 10° S 18:59:33 43° ESE 19:03:43 10° NE visible
30 May 6.6 18:21:02 10° SSE 18:24:25 23° ESE 18:27:52 10° ENE visible
30 May 8.7 20:05:05 10° W 20:07:13 13° WNW 20:09:23 10° NW visible
31 May 7.9 19:28:29 10° SW 19:32:02 25° WNW 19:35:41 10° NNW visible
01 Jun 6.6 18:52:44 10° SW 18:56:52 48° WNW 19:01:10 10° N visible
02 Jun 5.5 18:17:27 10° SSW 18:21:44 84° ESE 18:26:11 10° NNE visible
03 Jun 9.3 05:08:32 10° NNE 05:13:07 21° ENE 05:17:37 10° ESE visible
